San Luis Potosi, Mexico

9:03 AM CDT on May 25, 2017 (GMT -0500)
Ponciano Arriaga International

Weather History for MMSP - September, 2013

Change the Weather History Date:

Tuesday, September 17, 2013

  Actual Average Record
Temperature  
Mean Temperature 62 °F -  
Max Temperature 74 °F 75 °F 84 °F (2012)
Min Temperature 49 °F 55 °F 49 °F (2013)
Degree Days  
Heating Degree Days 4    
Growing Degree Days 12 (Base 50)    
Moisture  
Dew Point 60 °F    
Average Humidity 85    
Maximum Humidity 100    
Minimum Humidity 35    
Precipitation  
Precipitation 0.83 in - - ()
Sea Level Pressure  
Sea Level Pressure 29.97 in    
Wind  
Wind Speed 4 mph ()    
Max Wind Speed 16 mph    
Max Gust Speed -    
Visibility 9.7 miles    
Events Rain    
Averages and records for this station are not official NWS values.
T = Trace of Precipitation, MM = Missing Value Source: Averaged Metar Reports

Daily Weather History Graph

Daily Weather History Graph

Search for Another Location

Airport or City:

Trip Planner

Search our weather history database for the weather conditions in past years. The results will help you decide how hot, cold, wet, or windy it might be!

Date:

Astronomy

Sep. 17, 2013 Rise Set
Actual Time 7:31 AM CDT 7:44 PM CDT
Civil Twilight 7:08 AM CDT 8:07 PM CDT
Nautical Twilight 6:42 AM CDT 8:33 PM CDT
Astronomical Twilight 6:16 AM CDT 8:59 PM CDT
Moon 6:27 PM CDT (9/17) 5:37 AM CDT (9/17)
Length of Visible Light 12h 58m
Length of Day
12h 13m
Waxing Gibbous, 96% of the Moon is Illuminated
Sep 17
Waxing Gibbous
Sep 19
Full
Sep 26
Last Quarter
Oct 4
New
Oct 11
First Quarter

Hourly Weather History & Observations

Time (CDT) Temp. Dew Point Humidity Pressure Visibility Wind Dir Wind Speed Gust Speed Precip Events Conditions
12:50 AM 62.6 °F 59.0 °F 88% 29.73 in 8.0 mi Calm Calm - N/A   Mostly Cloudy
1:42 AM 62.6 °F 59.0 °F 88% 30.12 in 8.0 mi East 5.8 mph - N/A   Mostly Cloudy
2:40 AM 62.6 °F 59.0 °F 88% 30.12 in 8.0 mi East 4.6 mph - N/A   Mostly Cloudy
4:21 AM 62.6 °F 59.0 °F 88% 29.68 in 8.0 mi Calm Calm - N/A   Mostly Cloudy
4:48 AM 62.6 °F 59.0 °F 88% 30.10 in 8.0 mi Calm Calm - N/A   Mostly Cloudy
5:47 AM 62.6 °F 59.0 °F 88% 30.10 in 6.0 mi Calm Calm - N/A   Mostly Cloudy
6:48 AM 60.8 °F 57.2 °F 88% 29.72 in 6.0 mi Calm Calm - N/A   Mostly Cloudy
6:50 AM 61 °F 40 °F 35% 29.83 in 5 mi North 2.2 mph - -   Partly Cloudy
7:47 AM 60.8 °F 59.0 °F 94% 30.13 in 7.0 mi Calm Calm - N/A   Overcast
8:46 AM 62.6 °F 60.8 °F 94% 30.15 in 12.0 mi Calm Calm - N/A   Overcast
9:45 AM 65 °F 61 °F 84% 29.88 in 7 mi SSE 4.5 mph - -   Haze
9:56 AM 64.4 °F 59.0 °F 83% 29.75 in 15.0 mi Calm Calm - N/A   Overcast
10:48 AM 68.0 °F 57.2 °F 68% 30.18 in 15.0 mi SE 11.5 mph - N/A   Overcast
11:45 AM 68.0 °F 57.2 °F 68% 30.18 in 15.0 mi ENE 9.2 mph - N/A   Overcast
12:45 PM 71 °F 63 °F 70% 29.86 in 7 mi East 2.2 mph - -   Haze
12:48 PM 69.8 °F 59.0 °F 68% 29.76 in 15.0 mi ESE 9.2 mph - N/A   Overcast
1:41 PM 69.8 °F 59.0 °F 68% 30.13 in 15.0 mi East 16.1 mph - N/A   Overcast
2:48 PM 68.0 °F 57.2 °F 68% 30.12 in 12.0 mi ENE 11.5 mph - N/A   Mostly Cloudy
3:40 PM 68.0 °F 57.2 °F 68% 29.69 in 12.0 mi ENE 9.2 mph - N/A   Mostly Cloudy
3:50 PM 66 °F 65 °F 95% 29.78 in 7 mi East 4.5 mph - - Rain Light Rain
4:07 PM 64.4 °F 64.4 °F 100% 30.10 in 7.0 mi East 8.1 mph - N/A Rain Light Rain
4:44 PM 64.4 °F 64.4 °F 100% 30.10 in 10.0 mi ESE 11.5 mph - N/A   Overcast
5:43 PM 64.4 °F 64.4 °F 100% 30.09 in 10.0 mi East 11.5 mph - N/A   Overcast
6:47 PM 64.4 °F 64.4 °F 100% 29.75 in 10.0 mi East 12.7 mph - N/A   Overcast
6:50 PM 62 °F 57 °F 79% 29.87 in 6 mi East 4.5 mph - - Rain Light Rain
7:52 PM 64.4 °F 64.4 °F 100% 30.12 in 12.0 mi South 4.6 mph - N/A   Overcast
8:46 PM 64.4 °F 62.6 °F 94% 30.14 in 12.0 mi SSE 4.6 mph - N/A   Overcast
9:41 PM 64.4 °F 64.4 °F 100% 29.76 in 12.0 mi SSE 9.2 mph - N/A   Mostly Cloudy
9:50 PM 61 °F 58 °F 88% 29.85 in 5 mi SE 2.2 mph - -   Overcast
10:44 PM 62.6 °F 62.6 °F 100% 30.18 in 10.0 mi SE 11.5 mph - N/A   Mostly Cloudy
11:46 PM 62.6 °F 62.6 °F 100% 30.19 in 10.0 mi SE 9.2 mph - N/A   Overcast